Location: Newark
(34.9471°N, 136.1778°E)
Time: 01:53:02
(UTC+00:00)

XW-2C - Pass Details

Date: 23 February 2020
Orbit: 509 x 527 km, 97.5° (Epoch: 08 April)

Event Time Altitude Azimuth Distance (km) Brightness Sun altitude
Rises 20:47:48 0° 12° (NNE) 2,638 ? -9.8°
Reaches altitude 10° 20:49:54 10° 12° (NNE) 1,750 ? -9.4°
Maximum altitude 20:53:40 86° 99° (E) 525 ? -8.6°
Drops below altitude 10° 20:57:27 10° 191° (SSW) 1,748 ? -7.9°
Sets 20:59:33 0° 192° (SSW) 2,634 ? -7.4°
